tititudorancea.com
Station Historical Data
Daily Summary for January 3, 2019 Units:  Metric    English   Both
« Previous Day
Next Day »
Daily Weekly Monthly Yearly Custom
  High: Low: Average:
Temperature: -17.8 °C 11.5 °C 23 °C
Dew Point: -17.8 °C -0.4 °C 7.9 °C
Humidity: Humidity % 11 % 50 %
Wind Speed: 0 km/h 0 km/h 9.7 km/h
Wind Gust: 0 km/h - -
Wind:- - WSW
Pressure: 0 hPa 1005 hPa -
Precipitation: 0 mm    
Historical Graphs
 
 
Ararat weather Find more about Weather in Ararat, AU


 



 


Tabular Data for January 3, 2019
Time Temperature Dew Point Pressure Wind Wind Speed Wind Gust Humidity Rainfall Rate (Hourly)
-17.8 °C -17.8 °C 0 hPa Calm     Humidity % 0 mm
00:04 14.7 °C 11.3 °C 1011.7 hPa SSW 16.7 km/h 10.3 km/h 80 % 0 mm
00:09 14.6 °C 11.4 °C 1011.4 hPa SSW 13 km/h 10.6 km/h 81 % 0 mm
00:14 14.5 °C 11.3 °C 1011.4 hPa SSW 9.7 km/h 7.6 km/h 81 % 0 mm
00:19 14.4 °C 11.2 °C 1011.4 hPa North 16.7 km/h 12.4 km/h 81 % 0 mm
00:24 14.4 °C 11.3 °C 1011.4 hPa SSW 14.8 km/h 9.5 km/h 82 % 0 mm
00:29 14.3 °C 11.3 °C 1011.4 hPa North 16.7 km/h 10.1 km/h 82 % 0 mm
00:34 14.3 °C 11.2 °C 1011.4 hPa SSW 14.5 km/h 12.9 km/h 82 % 0 mm
00:39 14.2 °C 11.1 °C 1011.1 hPa SSW 16.7 km/h 8 km/h 82 % 0 mm
00:44 14.1 °C 11.3 °C 1011.1 hPa SSW 17.7 km/h 11.6 km/h 83 % 0 mm
00:49 14.1 °C 11.2 °C 1011.1 hPa SSW 14.8 km/h 7.4 km/h 83 % 0 mm
00:54 13.9 °C 11.1 °C 1010.7 hPa SSW 11.3 km/h 7.4 km/h 83 % 0 mm
00:59 13.9 °C 11.2 °C 1010.7 hPa South 13 km/h 11.3 km/h 84 % 0 mm
01:04 13.8 °C 11.1 °C 1010.7 hPa North 11.1 km/h 9.5 km/h 84 % 0 mm
01:09 13.7 °C 11.2 °C 1010.7 hPa SSW 14.8 km/h 10.3 km/h 85 % 0 mm
01:14 13.7 °C 11.2 °C 1010.7 hPa SSW 13 km/h 9.8 km/h 85 % 0 mm
01:19 13.6 °C 11.3 °C 1010.4 hPa North 13 km/h 10.3 km/h 86 % 0 mm
01:24 13.6 °C 11.3 °C 1010.4 hPa SSW 17.7 km/h 10 km/h 86 % 0 mm
01:29 13.6 °C 11.3 °C 1010.4 hPa SSW 14.8 km/h 10.6 km/h 86 % 0 mm
01:34 13.6 °C 11.3 °C 1010.4 hPa SSW 16.1 km/h 11.1 km/h 86 % 0 mm
01:39 13.6 °C 11.3 °C 1010.4 hPa North 16.7 km/h 11.6 km/h 86 % 0 mm
01:44 13.5 °C 11.2 °C 1010.4 hPa SSW 11.1 km/h 8.5 km/h 86 % 0 mm
01:49 13.4 °C 11.3 °C 1010.4 hPa SSW 13 km/h 8.4 km/h 87 % 0 mm
01:54 13.4 °C 11.3 °C 1010.4 hPa SSW 9.3 km/h 5.8 km/h 87 % 0 mm
01:59 13.3 °C 11.2 °C 1010 hPa SSW 9.7 km/h 7.9 km/h 87 % 0 mm
02:04 13.2 °C 11.1 °C 1010 hPa SSW 5.6 km/h 4 km/h 87 % 0 mm
02:09 13.2 °C 11.2 °C 1010 hPa SSW 11.1 km/h 4.5 km/h 88 % 0 mm
02:14 13.1 °C 11.2 °C 1010 hPa SSW 11.1 km/h 8 km/h 88 % 0 mm
02:19 13.1 °C 11.1 °C 1010 hPa SSW 9.3 km/h 8.2 km/h 88 % 0 mm
02:24 13.1 °C 11.3 °C 1009.7 hPa North 9.7 km/h 10.5 km/h 89 % 0 mm
02:29 13 °C 11.2 °C 1009.7 hPa North 11.3 km/h 6.4 km/h 89 % 0 mm
02:34 12.9 °C 11.2 °C 1009.7 hPa SSW 13 km/h 6.6 km/h 89 % 0 mm
02:39 13 °C 11.2 °C 1009.7 hPa SSW 14.8 km/h 8.2 km/h 89 % 0 mm
02:44 12.9 °C 11.7 °C 1009.7 hPa SSW 13 km/h 7.6 km/h 92 % 0 mm
02:49 12.8 °C 11 °C 1010 hPa North 13 km/h 10.5 km/h 89 % 0 mm
02:54 12.6 °C 11 °C 1010 hPa SSW 14.8 km/h 10.6 km/h 90 % 0 mm
02:59 12.5 °C 10.9 °C 1010 hPa SSW 13 km/h 6.6 km/h 90 % 0 mm
03:04 12.4 °C 10.8 °C 1010 hPa SSW 13 km/h 10.5 km/h 90 % 0 mm
03:09 12.3 °C 10.7 °C 1010 hPa SSW 9.3 km/h 7.4 km/h 90 % 0 mm
03:14 12.3 °C 10.8 °C 1010 hPa North 11.1 km/h 8.2 km/h 91 % 0 mm
03:19 12.3 °C 10.8 °C 1009.7 hPa SSW 7.4 km/h 5 km/h 91 % 0 mm
03:24 12.3 °C 10.9 °C 1009.7 hPa SSW 12.9 km/h 8.5 km/h 91 % 0 mm
03:29 12.4 °C 10.9 °C 1009.7 hPa SSW 12.9 km/h 7.2 km/h 91 % 0 mm
03:34 12.3 °C 10.9 °C 1009.7 hPa North 13 km/h 11.6 km/h 91 % 0 mm
03:39 12.4 °C 10.9 °C 1009.7 hPa SSW 18.5 km/h 10.1 km/h 91 % 0 mm
03:44 12.4 °C 10.9 °C 1009.7 hPa SSW 14.8 km/h 9.5 km/h 91 % 0 mm
03:49 12.4 °C 10.9 °C 1009.7 hPa SSW 14.8 km/h 8.7 km/h 91 % 0 mm
03:54 12.3 °C 10.9 °C 1009.4 hPa North 11.3 km/h 8.2 km/h 91 % 0 mm
03:59 12.3 °C 10.9 °C 1009.7 hPa North 11.1 km/h 6.1 km/h 91 % 0 mm
04:04 12.3 °C 10.8 °C 1009.7 hPa South 9.7 km/h 6.9 km/h 91 % 0 mm
04:09 12.3 °C 10.8 °C 1009.7 hPa SSW 9.7 km/h 7.2 km/h 91 % 0 mm
04:14 12.2 °C 10.9 °C 1009.7 hPa SSW 14.8 km/h 9.2 km/h 92 % 0 mm
04:19 12.2 °C 10.8 °C 1009.7 hPa SSW 8 km/h 6.4 km/h 91 % 0 mm
04:24 12 °C 10.6 °C 1009.7 hPa SSW 7.4 km/h 6.8 km/h 91 % 0 mm
04:29 11.9 °C 10.4 °C 1009.7 hPa SSW 8 km/h 6.1 km/h 91 % 0 mm
04:34 11.9 °C 10.7 °C 1009.7 hPa North 11.1 km/h 7.1 km/h 92 % 0 mm
04:39 11.9 °C 10.7 °C 1009.7 hPa SSW 16.7 km/h 8.9 km/h 92 % 0 mm
04:44 12 °C 10.7 °C 1009.7 hPa North 14.8 km/h 8.4 km/h 92 % 0 mm
04:49 12 °C 10.7 °C 1009.7 hPa South 12.9 km/h 11.4 km/h 92 % 0 mm
04:54 12 °C 10.7 °C 1009.7 hPa South 11.3 km/h 7.9 km/h 92 % 0 mm
04:59 11.9 °C 10.7 °C 1009.7 hPa South 13 km/h 11.6 km/h 92 % 0 mm
05:04 11.9 °C 10.7 °C 1009.7 hPa South 14.8 km/h 7.6 km/h 92 % 0 mm
05:09 11.9 °C 10.6 °C 1009.7 hPa South 13 km/h 6 km/h 92 % 0 mm
05:14 11.8 °C 10.6 °C 1009.7 hPa South 9.3 km/h 7.4 km/h 92 % 0 mm
05:19 11.8 °C 10.5 °C 1009.7 hPa South 11.1 km/h 10.1 km/h 92 % 0 mm
05:24 11.8 °C 10.7 °C 1009.7 hPa South 14.8 km/h 9.8 km/h 93 % 0 mm
05:29 11.7 °C 10.6 °C 1009.7 hPa South 13 km/h 8.7 km/h 93 % 0 mm
05:34 11.6 °C 10.5 °C 1009.7 hPa South 11.1 km/h 5.8 km/h 93 % 0 mm
05:39 11.6 °C 10.4 °C 1009.7 hPa South 11.1 km/h 7.7 km/h 93 % 0 mm
05:44 11.6 °C 10.4 °C 1009.7 hPa South 13 km/h 7.6 km/h 93 % 0 mm
05:49 11.6 °C 10.4 °C 1009.7 hPa North 14.8 km/h 9 km/h 93 % 0 mm
05:54 11.5 °C 10.4 °C 1009.7 hPa South 14.8 km/h 7.4 km/h 93 % 0 mm
05:59 11.5 °C 10.4 °C 1009.7 hPa South 13 km/h 8.2 km/h 93 % 0 mm
06:04 11.6 °C 10.4 °C 1009.7 hPa South 9.3 km/h 7.4 km/h 93 % 0 mm
06:09 11.6 °C 10.5 °C 1009.7 hPa South 11.1 km/h 9.2 km/h 93 % 0 mm
06:14 11.7 °C 10.6 °C 1010 hPa South 13 km/h 6.9 km/h 93 % 0 mm
06:19 11.6 °C 10.5 °C 1010 hPa South 11.1 km/h 8.4 km/h 93 % 0 mm
06:24 11.6 °C 10.5 °C 1010 hPa South 14.5 km/h 9.8 km/h 93 % 0 mm
06:29 11.6 °C 10.4 °C 1010 hPa South 12.9 km/h 9.2 km/h 93 % 0 mm
06:34 11.6 °C 10.5 °C 1010 hPa South 14.8 km/h 8 km/h 93 % 0 mm
06:39 11.7 °C 10.6 °C 1010 hPa South 11.1 km/h 10.8 km/h 93 % 0 mm
06:44 11.7 °C 10.6 °C 1010 hPa South 14.8 km/h 7.4 km/h 93 % 0 mm
06:49 11.8 °C 10.7 °C 1010 hPa SSW 16.7 km/h 11.1 km/h 93 % 0 mm
06:54 11.9 °C 10.8 °C 1010 hPa South 13 km/h 8.7 km/h 93 % 0 mm
06:59 12.1 °C 10.9 °C 1010 hPa SSW 14.8 km/h 9.8 km/h 93 % 0 mm
07:04 12.2 °C 11.1 °C 1010 hPa South 13 km/h 9.5 km/h 93 % 0 mm
07:09 12.3 °C 11 °C 1010 hPa SSW 13 km/h 12.9 km/h 92 % 0 mm
07:14 12.4 °C 11.2 °C 1010 hPa SSW 16.7 km/h 10.5 km/h 92 % 0 mm
07:19 12.6 °C 11.3 °C 1010 hPa North 14.8 km/h 10.9 km/h 92 % 0 mm
07:24 12.7 °C 11.3 °C 1010 hPa SSW 12.9 km/h 9 km/h 91 % 0 mm
07:29 12.9 °C 11.4 °C 1010 hPa SSW 16.7 km/h 7.9 km/h 91 % 0 mm
07:34 13.1 °C 11.5 °C 1010 hPa SSW 9.3 km/h 8.7 km/h 90 % 0 mm
07:39 13.3 °C 11.7 °C 1010 hPa SSW 14.8 km/h 4.3 km/h 90 % 0 mm
07:44 13.5 °C 11.7 °C 1010 hPa SSW 11.1 km/h 6.4 km/h 89 % 0 mm
07:49 13.8 °C 12 °C 1010 hPa SSW 12.9 km/h 6 km/h 89 % 0 mm
07:54 14 °C 11.9 °C 1010 hPa SSW 14.8 km/h 10.9 km/h 87 % 0 mm
07:59 14.2 °C 11.8 °C 1010 hPa SSW 12.9 km/h 12.2 km/h 86 % 0 mm
08:04 14.2 °C 11.9 °C 1010 hPa SSW 11.3 km/h 10.9 km/h 86 % 0 mm
08:09 14.4 °C 11.9 °C 1010 hPa SSW 13 km/h 7.4 km/h 85 % 0 mm
08:14 14.6 °C 12.1 °C 1009.7 hPa SSW 5.6 km/h 3.9 km/h 85 % 0 mm
08:19 14.8 °C 11.9 °C 1009.7 hPa SSW 11.1 km/h 7.1 km/h 83 % 0 mm
08:24 15 °C 12.1 °C 1009.7 hPa SSW 9.3 km/h 8.4 km/h 83 % 0 mm
08:29 15.3 °C 12.2 °C 1009.7 hPa SSW 9.3 km/h 5.8 km/h 82 % 0 mm
08:34 15.7 °C 12.4 °C 1009.7 hPa SSW 5.6 km/h 4 km/h 81 % 0 mm
08:39 16 °C 12.3 °C 1009.7 hPa SSW 9.7 km/h 5.8 km/h 79 % 0 mm
08:44 16.2 °C 12.4 °C 1009.7 hPa South 11.1 km/h 11.1 km/h 78 % 0 mm
08:49 16.7 °C 12.4 °C 1009.7 hPa SSW 11.1 km/h 6.1 km/h 76 % 0 mm
08:54 16.9 °C 12.4 °C 1009.7 hPa SSW 9.3 km/h 5.8 km/h 75 % 0 mm
08:59 17.3 °C 12.4 °C 1009.7 hPa SSW 11.1 km/h 9.8 km/h 73 % 0 mm
09:04 17.5 °C 12.4 °C 1009.7 hPa SSW 9.3 km/h 7.1 km/h 72 % 0 mm
09:09 17.9 °C 12.8 °C 1009.7 hPa South 9.3 km/h 7.1 km/h 72 % 0 mm
09:14 18.2 °C 12.4 °C 1009.7 hPa South 14.8 km/h 10.8 km/h 69 % 0 mm
09:19 18.3 °C 12.8 °C 1009.7 hPa SSW 13 km/h 11.1 km/h 70 % 0 mm
09:24 18.4 °C 12.6 °C 1009.7 hPa South 9.3 km/h 8.5 km/h 69 % 0 mm
09:29 18.7 °C 13.1 °C 1009.7 hPa South 8 km/h 7.2 km/h 70 % 0 mm
09:34 18.8 °C 12.8 °C 1009.7 hPa SSW 13 km/h 7.4 km/h 68 % 0 mm
09:39 19.1 °C 13.1 °C 1009.7 hPa SSW 11.1 km/h 10 km/h 68 % 0 mm
09:44 19.4 °C 13.2 °C 1009.7 hPa SSW 14.8 km/h 6.8 km/h 67 % 0 mm
09:49 19.7 °C 13.2 °C 1009.7 hPa SSW 12.9 km/h 7.4 km/h 66 % 0 mm
09:54 19.9 °C 13.4 °C 1009.7 hPa SSW 8 km/h 6.3 km/h 66 % 0 mm
09:59 20.3 °C 13.2 °C 1009.7 hPa SSW 11.3 km/h 9 km/h 64 % 0 mm
10:04 20.7 °C 13.4 °C 1009.4 hPa SSW 9.7 km/h 7.1 km/h 63 % 0 mm
10:09 21.1 °C 13.5 °C 1009.7 hPa SSW 13 km/h 9.8 km/h 62 % 0 mm
10:14 21.4 °C 13.3 °C 1009.4 hPa SSW 7.4 km/h 3.5 km/h 60 % 0 mm
10:19 21.9 °C 13.1 °C 1009.4 hPa South 14.8 km/h 8.2 km/h 57 % 0 mm
10:24 22.5 °C 13.3 °C 1009.4 hPa South 9.3 km/h 7.1 km/h 56 % 0 mm
10:29 22.9 °C 12.8 °C 1009.4 hPa South 11.1 km/h 4.5 km/h 53 % 0 mm
10:34 23.3 °C 12.6 °C 1009.4 hPa South 9.3 km/h 6.9 km/h 51 % 0 mm
10:39 23.9 °C 12.8 °C 1009.4 hPa South 9.7 km/h 6.9 km/h 50 % 0 mm
10:44 24.4 °C 12 °C 1009 hPa South 11.1 km/h 7.6 km/h 46 % 0 mm
10:49 24.7 °C 12.3 °C 1009 hPa South 9.3 km/h 7.2 km/h 46 % 0 mm
10:54 25.5 °C 11.3 °C 1009 hPa SSE 13 km/h 5.5 km/h 41 % 0 mm
10:59 25.9 °C 11.3 °C 1009 hPa SSE 8 km/h 6.9 km/h 40 % 0 mm
11:04 26.7 °C 12.3 °C 1009.4 hPa SSE 7.4 km/h 3.2 km/h 41 % 0 mm
11:09 26.8 °C 11.7 °C 1009 hPa SSE 5.6 km/h 3.9 km/h 39 % 0 mm
11:14 26.7 °C 11.6 °C 1009 hPa SSE 12.9 km/h 5 km/h 39 % 0 mm
11:19 26.8 °C 11.7 °C 1009 hPa SSE 7.4 km/h 7.2 km/h 39 % 0 mm
11:24 27.3 °C 11.3 °C 1009 hPa SSE 3.7 km/h 0.5 km/h 37 % 0 mm
11:29 27.4 °C 10.6 °C 1009 hPa SSE 3.7 km/h 3.9 km/h 35 % 0 mm
11:34 27.4 °C 10.1 °C 1009 hPa SSE 9.3 km/h 7.1 km/h 34 % 0 mm
11:39 28.1 °C 11.2 °C 1009 hPa SSE 7.4 km/h 1.1 km/h 35 % 0 mm
11:44 28.6 °C 10.7 °C 1009 hPa SSE 8 km/h 6 km/h 33 % 0 mm
11:49 28.6 °C 9.8 °C 1009 hPa SSE 11.1 km/h 7.4 km/h 31 % 0 mm
11:54 28.4 °C 9.2 °C 1009 hPa SSE 11.1 km/h 8.9 km/h 30 % 0 mm
11:59 28.8 °C 8.9 °C 1009 hPa SSE 11.1 km/h 1.4 km/h 29 % 0 mm
12:04 28.8 °C 9.5 °C 1009 hPa SSE 13 km/h 8.7 km/h 30 % 0 mm
12:09 28.9 °C 9.6 °C 1008.7 hPa SSE 3.7 km/h 3.4 km/h 30 % 0 mm
12:14 29.3 °C 9.4 °C 1008.7 hPa SSE 8 km/h 2.3 km/h 29 % 0 mm
12:19 29.7 °C 9.8 °C 1008.7 hPa SSE 9.3 km/h 7.6 km/h 29 % 0 mm
12:24 29.7 °C 7.6 °C 1008.7 hPa South 11.1 km/h 6.8 km/h 25 % 0 mm
12:29 29.4 °C 7.9 °C 1008.7 hPa South 9.3 km/h 6.6 km/h 26 % 0 mm
12:34 29.5 °C 7.4 °C 1008.7 hPa South 5.6 km/h 2.3 km/h 25 % 0 mm
12:39 30.2 °C 7.9 °C 1008.7 hPa South 7.4 km/h 6.3 km/h 25 % 0 mm
12:44 30 °C 7.2 °C 1008.7 hPa South 11.1 km/h 6.9 km/h 24 % 0 mm
12:49 30.1 °C 7.3 °C 1008.7 hPa South 9.3 km/h 6.8 km/h 24 % 0 mm
12:54 30.3 °C 7.5 °C 1008.4 hPa South 6.4 km/h 2.9 km/h 24 % 0 mm
12:59 30.6 °C 7.7 °C 1008.4 hPa SSW 9.3 km/h 7.2 km/h 24 % 0 mm
13:04 30.5 °C 8.2 °C 1008.4 hPa SSW 13 km/h 8 km/h 25 % 0 mm
13:09 30.7 °C 7.8 °C 1008 hPa SSW 9.3 km/h 8.2 km/h 24 % 0 mm
13:14 30.8 °C 6.6 °C 1008 hPa SSW 11.3 km/h 7.7 km/h 22 % 0 mm
13:19 30.7 °C 7.2 °C 1008 hPa SSW 3.7 km/h 4.5 km/h 23 % 0 mm
13:24 31.1 °C 6.2 °C 1008 hPa SSW 5.6 km/h 3.5 km/h 21 % 0 mm
13:29 31.4 °C 7.8 °C 1008 hPa SSW 12.9 km/h 8 km/h 23 % 0 mm
13:34 31.4 °C 7.2 °C 1008 hPa WSW 18.5 km/h 14.6 km/h 22 % 0 mm
13:39 31.8 °C 4.5 °C 1008 hPa WSW 11.1 km/h 5.8 km/h 18 % 0 mm
13:44 31.9 °C 5.4 °C 1008 hPa North 5.6 km/h 4 km/h 19 % 0 mm
13:49 32.1 °C 7.1 °C 1008 hPa WSW 8 km/h 6 km/h 21 % 0 mm
13:54 32.1 °C 7.1 °C 1007.7 hPa WSW 14.8 km/h 7.7 km/h 21 % 0 mm
13:59 32.1 °C 6.3 °C 1007.7 hPa SSW 14.8 km/h 12.2 km/h 20 % 0 mm
14:04 32.1 °C 6.3 °C 1007.7 hPa South 9.3 km/h 4.7 km/h 20 % 0 mm
14:09 32.2 °C 7.1 °C 1007.7 hPa South 9.3 km/h 5.8 km/h 21 % 0 mm
14:14 32.5 °C 5.1 °C 1007.3 hPa South 7.4 km/h 2.9 km/h 18 % 0 mm
14:19 32.9 °C 5.4 °C 1007.3 hPa SW 14.8 km/h 9.7 km/h 18 % 0 mm
14:24 32.7 °C 4.5 °C 1007.3 hPa SW 5.6 km/h 4.2 km/h 17 % 0 mm
14:29 32.6 °C 4.4 °C 1007.3 hPa WNW 16.7 km/h 10.3 km/h 17 % 0 mm
14:34 32.4 °C 4.2 °C 1007.3 hPa West 5.6 km/h 5.3 km/h 17 % 0 mm
14:39 32.8 °C 5.4 °C 1007 hPa West 5.6 km/h 3.5 km/h 18 % 0 mm
14:44 33.3 °C 5.8 °C 1007 hPa West 11.3 km/h 8.2 km/h 18 % 0 mm
14:49 33.1 °C 4.7 °C 1007 hPa NW 14.8 km/h 6.8 km/h 17 % 0 mm
14:54 33.3 °C 4.1 °C 1007 hPa WNW 18.5 km/h 13.8 km/h 16 % 0 mm
14:59 33.2 °C 3.1 °C 1007 hPa WNW 14.5 km/h 6 km/h 15 % 0 mm
15:04 33.2 °C 2.1 °C 1007 hPa West 14.8 km/h 9.8 km/h 14 % 0 mm
15:09 33.3 °C 4.1 °C 1006.7 hPa WSW 9.3 km/h 3.4 km/h 16 % 0 mm
15:14 33.7 °C 3.5 °C 1006.7 hPa North 6.4 km/h 4.8 km/h 15 % 0 mm
15:19 33.9 °C 3.7 °C 1006.7 hPa WSW 9.3 km/h 3.9 km/h 15 % 0 mm
15:24 34.1 °C 3.8 °C 1006.7 hPa West 9.7 km/h 6.3 km/h 15 % 0 mm
15:29 33.9 °C 2.7 °C 1006.7 hPa WSW 7.4 km/h 3.1 km/h 14 % 0 mm
15:34 34.6 °C 2.1 °C 1006.7 hPa WSW 5.6 km/h 4.3 km/h 13 % 0 mm
15:39 34.6 °C 1 °C 1006.7 hPa WNW 13 km/h 9.3 km/h 12 % 0 mm
15:44 34.4 °C 2 °C 1006.3 hPa WNW 11.3 km/h 8.7 km/h 13 % 0 mm
15:49 34 °C 0.6 °C 1006.3 hPa North 12.9 km/h 10.6 km/h 12 % 0 mm
15:54 34.2 °C -0.4 °C 1006.3 hPa North 7.4 km/h 5.5 km/h 11 % 0 mm
15:59 34.3 °C 0.8 °C 1006.3 hPa NW 14.8 km/h 9.8 km/h 12 % 0 mm
16:04 34.6 °C 1.1 °C 1006.3 hPa NW 9.3 km/h 4 km/h 12 % 0 mm
16:09 34.4 °C 0.9 °C 1006.3 hPa WNW 18.5 km/h 14.8 km/h 12 % 0 mm
16:14 34.3 °C 0.8 °C 1006.3 hPa WNW 18.5 km/h 14.6 km/h 12 % 0 mm
16:19 34.3 °C 0.8 °C 1006 hPa WNW 16.7 km/h 7.1 km/h 12 % 0 mm
16:24 34.4 °C 0.9 °C 1006 hPa North 9.3 km/h 4.3 km/h 12 % 0 mm
16:29 34.3 °C -0.4 °C 1006 hPa West 3.7 km/h 1.9 km/h 11 % 0 mm
16:34 34.4 °C 2.1 °C 1006 hPa WNW 11.1 km/h 2.7 km/h 13 % 0 mm
16:39 34.2 °C 2.9 °C 1006 hPa WSW 11.3 km/h 10.3 km/h 14 % 0 mm
16:44 34.3 °C 3 °C 1006 hPa NW 18.5 km/h 10.3 km/h 14 % 0 mm
16:49 34.4 °C 3.1 °C 1005.6 hPa NW 4.8 km/h 1.1 km/h 14 % 0 mm
16:54 34.3 °C 3 °C 1005.6 hPa NW 11.1 km/h 5.3 km/h 14 % 0 mm
16:59 34.3 °C 3 °C 1005.6 hPa NW 6.4 km/h 4 km/h 14 % 0 mm
17:04 34.4 °C 3.1 °C 1005.6 hPa NNW 13 km/h 9.5 km/h 14 % 0 mm
17:09 34.7 °C 3.3 °C 1005.6 hPa NNW 11.1 km/h 8.5 km/h 14 % 0 mm
17:14 34.9 °C 2.4 °C 1005.6 hPa WNW 16.7 km/h 9.2 km/h 13 % 0 mm
17:19 34.9 °C 1.3 °C 1005.3 hPa WNW 13 km/h 7.7 km/h 12 % 0 mm
17:24 34.8 °C 2.3 °C 1005.3 hPa WNW 18.5 km/h 9.7 km/h 13 % 0 mm
17:29 34.7 °C 2.2 °C 1005.3 hPa WNW 11.1 km/h 8.7 km/h 13 % 0 mm
17:34 34.7 °C 2.3 °C 1005.3 hPa WNW 13 km/h 10 km/h 13 % 0 mm
17:39 34.6 °C 3.2 °C 1005.3 hPa WNW 13 km/h 12.4 km/h 14 % 0 mm
17:44 34.8 °C 2.3 °C 1005.3 hPa North 9.3 km/h 3.1 km/h 13 % 0 mm
17:49 34.8 °C 1.2 °C 1005.3 hPa WNW 7.4 km/h 4.5 km/h 12 % 0 mm
17:54 34.8 °C 2.3 °C 1005.3 hPa WNW 13 km/h 7.2 km/h 13 % 0 mm
17:59 34.6 °C 3.2 °C 1005 hPa WNW 9.3 km/h 7.6 km/h 14 % 0 mm
18:04 34.7 °C 2.3 °C 1005 hPa WNW 11.3 km/h 7.7 km/h 13 % 0 mm
18:09 34.7 °C 2.3 °C 1005 hPa WNW 8 km/h 6.8 km/h 13 % 0 mm
18:14 34.9 °C 2.4 °C 1005 hPa WNW 7.4 km/h 3.7 km/h 13 % 0 mm
18:19 35.1 °C 1.4 °C 1005 hPa WNW 11.1 km/h 5.8 km/h 12 % 0 mm
18:24 35.1 °C 2.5 °C 1005 hPa WNW 11.3 km/h 7.6 km/h 13 % 0 mm
18:29 34.7 °C 2.2 °C 1005 hPa WNW 16.7 km/h 13.5 km/h 13 % 0 mm
18:34 34.6 °C 2.2 °C 1005 hPa WNW 7.4 km/h 5 km/h 13 % 0 mm
18:39 34.7 °C 2.2 °C 1005 hPa NW 11.1 km/h 7.7 km/h 13 % 0 mm
18:44 34.6 °C 2.2 °C 1005 hPa NW 7.4 km/h 6 km/h 13 % 0 mm
18:49 34.3 °C 1.9 °C 1005 hPa NW 14.8 km/h 8.2 km/h 13 % 0 mm
18:54 34.2 °C 1.9 °C 1005 hPa WNW 13 km/h 5.8 km/h 13 % 0 mm
18:59 34.3 °C 1.9 °C 1005 hPa NW 9.7 km/h 7.2 km/h 13 % 0 mm
19:04 34.4 °C 2 °C 1005 hPa NW 9.3 km/h 6.4 km/h 13 % 0 mm
19:09 34.3 °C 1.9 °C 1005 hPa NW 7.4 km/h 6 km/h 13 % 0 mm
19:14 34.2 °C 1.9 °C 1005 hPa NW 5.6 km/h 0.8 km/h 13 % 0 mm
19:19 34.2 °C 1.9 °C 1005 hPa North 9.3 km/h 5.6 km/h 13 % 0 mm
19:24 34.2 °C 1.9 °C 1005 hPa NW 7.4 km/h 6.6 km/h 13 % 0 mm
19:29 34.2 °C 1.8 °C 1005 hPa NW 6.4 km/h 5.5 km/h 13 % 0 mm
19:34 34.2 °C 1.9 °C 1005 hPa North 4.8 km/h 3.5 km/h 13 % 0 mm
19:39 34.2 °C 2.9 °C 1005 hPa North 5.6 km/h 3.4 km/h 14 % 0 mm
19:44 34.2 °C 2.9 °C 1005 hPa NW 5.6 km/h 3.9 km/h 14 % 0 mm
19:49 34.2 °C 2.9 °C 1005.3 hPa NW 5.6 km/h 2.4 km/h 14 % 0 mm
19:54 34.1 °C 2.8 °C 1005 hPa NW 5.6 km/h 3.9 km/h 14 % 0 mm
19:59 34 °C 2.7 °C 1005.3 hPa North 8 km/h 4.7 km/h 14 % 0 mm
20:04 33.8 °C 3.6 °C 1005.3 hPa NW 5.6 km/h 3.1 km/h 15 % 0 mm
20:09 33.7 °C 3.4 °C 1005.3 hPa NW 3.7 km/h 2.3 km/h 15 % 0 mm
20:14 33.6 °C 3.4 °C 1005.3 hPa NW 3.2 km/h 1.1 km/h 15 % 0 mm
20:19 33.4 °C 3.2 °C 1005.3 hPa North 5.6 km/h 2.3 km/h 15 % 0 mm
20:24 33.3 °C 3.1 °C 1005.3 hPa NW 3.7 km/h 1.3 km/h 15 % 0 mm
20:29 33.1 °C 3.9 °C 1005.3 hPa Calm   0.6 km/h 16 % 0 mm
20:34 32.4 °C 4.2 °C 1005.3 hPa NW 3.7 km/h 2.6 km/h 17 % 0 mm
20:39 31.9 °C 4.7 °C 1005.3 hPa Calm     18 % 0 mm
20:44 31.1 °C 4.7 °C 1005.6 hPa Calm     19 % 0 mm
20:49 30.2 °C 4.8 °C 1005.6 hPa Calm     20 % 0 mm
20:54 29.3 °C 5.3 °C 1005.6 hPa NW 1.6 km/h 0.6 km/h 22 % 0 mm
20:59 28.7 °C 6.2 °C 1005.6 hPa NW 3.2 km/h 2.6 km/h 24 % 0 mm
21:04 28.2 °C 6.3 °C 1005.6 hPa NW 3.7 km/h 1.9 km/h 25 % 0 mm
21:09 27.7 °C 5.9 °C 1005.6 hPa North 3.7 km/h 1.6 km/h 25 % 0 mm
21:14 27.6 °C 5.8 °C 1005.6 hPa North 3.7 km/h 2.6 km/h 25 % 0 mm
21:19 27.3 °C 6.1 °C 1005.6 hPa NW 3.7 km/h 1.8 km/h 26 % 0 mm
21:24 27.1 °C 5.9 °C 1005.6 hPa NW 3.7 km/h 1.9 km/h 26 % 0 mm
21:29 26.7 °C 6.7 °C 1005.6 hPa NW 1.9 km/h 1.1 km/h 28 % 0 mm
21:34 26.1 °C 6.7 °C 1005.6 hPa NW 3.7 km/h 1.8 km/h 29 % 0 mm
21:37 25.9 °C 6.6 °C 1006 hPa North 3.7 km/h 1.6 km/h 29 % 0 mm
21:49 25.2 °C 6.9 °C 1006 hPa North 3.7 km/h   31 % 0 mm
21:54 25.1 °C 6.7 °C 1006 hPa Calm     31 % 0 mm
21:59 24.9 °C 6.6 °C 1006 hPa Calm     31 % 0 mm
22:04 24.7 °C 6.9 °C 1006 hPa Calm     32 % 0 mm
22:09 24.3 °C 7 °C 1006 hPa NW 4.8 km/h 1.8 km/h 33 % 0 mm
22:14 24.1 °C 7.6 °C 1006 hPa Calm     35 % 0 mm
22:19 23.7 °C 6.9 °C 1006 hPa Calm     34 % 0 mm
22:24 23.4 °C 7.1 °C 1006 hPa Calm     35 % 0 mm
22:29 23.2 °C 7.7 °C 1006 hPa Calm     37 % 0 mm
22:34 22.8 °C 7.4 °C 1006.3 hPa Calm     37 % 0 mm
22:39 22.5 °C 7.8 °C 1006.3 hPa Calm     39 % 0 mm
22:40 22.4 °C 7.4 °C 1006 hPa Calm     38 % 0 mm
22:49 21.8 °C 7.6 °C 1006 hPa Calm     40 % 0 mm
22:54 21.7 °C 7.5 °C 1006 hPa Calm     40 % 0 mm
22:59 21.6 °C 7.8 °C 1006 hPa Calm     41 % 0 mm
23:04 21.4 °C 7.9 °C 1006 hPa Calm     42 % 0 mm
23:09 21.2 °C 7 °C 1006 hPa NW 5.6 km/h 2.4 km/h 40 % 0 mm
23:14 21.3 °C 7.1 °C 1006 hPa NW 3.2 km/h 2.1 km/h 40 % 0 mm
23:19 21.1 °C 7.3 °C 1006 hPa Calm     41 % 0 mm
23:24 20.9 °C 7.1 °C 1006.3 hPa Calm     41 % 0 mm
23:29 20.8 °C 7.1 °C 1006 hPa Calm     41 % 0 mm
23:34 20.7 °C 7.7 °C 1006.3 hPa Calm     43 % 0 mm
23:39 20.6 °C 7.2 °C 1006.3 hPa Calm     42 % 0 mm
23:44 20.6 °C 7.2 °C 1006.3 hPa Calm     42 % 0 mm
23:49 20.5 °C 7.5 °C 1006.3 hPa Calm     43 % 0 mm
23:54 20.4 °C 6.7 °C 1006.3 hPa Calm     41 % 0 mm
23:59 20.4 °C 6.7 °C 1006.3 hPa Calm     41 % 0 mm
Ararat Weather
Compliments of Weather Underground - 2.25 mb
Click here to send mail.


ABOUT

Live weather data from Ararat, Victoria, Australia, 3377
Data uploaded from Cumulus every 5 minutes to Weather Underground.
This site then downloads the raw data for formatting and display.
Metric and imperial data can be displayed. Graphs and historical data available.
Includes Sun and Moon times and rain image live from BOM.

Check out Ararat Weather on Facebook, Twitter and Google +

Help support ongoing costs by checking out the ads





Follow @AraratWeather